TOM3AG LCPH-EGFF

Flight info

Callsign TOM3AG
Flight time N/A
Altitude 32000
Route GENOS M42 ALKIS DCT BANRO UN128 RIKSO DCT LMO UN128 PEREN DCT DISOR DCT LONTA UL608 DOLEV/N0443F340 DCT MITNO DCT LURID DCT BEDOX DCT SIMBA DCT MAMOR DCT INBED DCT BOMBI DCT ADKUV DCT SOGRI DCT DENUT L610 KOPUL Q63 ICTAM
Aircraft B738/M-SDE2E3FGHIRWXY/LB1

Departure

Time 2026-05-01 14:08
Airport Paphos International Airport (LCPH)

Arrival

Time N/A
Airport Cardiff International Airport (EGFF)
Time Latitude Longitude Altitude Speed Heading
2026-05-01 13:58 34.71493 32.48738 45 ft 0 kts 30°
2026-05-01 14:06 34.71512 32.48756 44 ft 9 kts 47°
2026-05-01 14:06 34.71520 32.48833 45 ft 11 kts 88°
2026-05-01 14:06 34.71528 32.48962 45 ft 17 kts 54°
2026-05-01 14:06 34.71624 32.49029 47 ft 10 kts 16°
2026-05-01 14:07 34.71655 32.49008 46 ft 0 kts 290°
2026-05-01 14:07 34.71656 32.49008 46 ft 2 kts 290°
2026-05-01 14:07 34.71715 32.48816 44 ft 63 kts 290°
2026-05-01 14:08 34.72357 32.46751 255 ft 179 kts 291°
2026-05-01 14:08 34.72725 32.45280 1177 ft 178 kts 271°
2026-05-01 14:08 34.72415 32.43895 2304 ft 174 kts 251°
2026-05-01 14:08 34.72012 32.42395 2694 ft 200 kts 253°
2026-05-01 14:09 34.71596 32.40691 2941 ft 219 kts 253°
2026-05-01 14:09 34.71161 32.38869 3383 ft 228 kts 254°
2026-05-01 14:09 34.70715 32.36983 3841 ft 240 kts 254°
2026-05-01 14:09 34.70238 32.34953 4231 ft 257 kts 254°
2026-05-01 14:10 34.69743 32.32831 4885 ft 262 kts 254°
2026-05-01 14:10 34.69249 32.30708 5718 ft 263 kts 255°
2026-05-01 14:10 34.68746 32.28538 6384 ft 269 kts 255°
2026-05-01 14:10 34.68244 32.26369 7181 ft 267 kts 256°
2026-05-01 14:11 34.67737 32.24180 7869 ft 271 kts 256°
2026-05-01 14:11 34.66709 32.19756 9354 ft 274 kts 256°
2026-05-01 14:11 34.66195 32.17524 10065 ft 275 kts 258°
2026-05-01 14:12 34.66049 32.15161 10368 ft 291 kts 275°
2026-05-01 14:12 34.66234 32.12666 10537 ft 311 kts 276°
2026-05-01 14:12 34.66457 32.09964 10712 ft 331 kts 276°
2026-05-01 14:12 34.66686 32.07102 11136 ft 340 kts 276°
2026-05-01 14:13 34.66902 32.04265 11751 ft 343 kts 275°
2026-05-01 14:13 34.67045 32.02308 12199 ft 345 kts 275°
2026-05-01 14:13 34.67320 31.98447 13033 ft 349 kts 275°
2026-05-01 14:13 34.67526 31.95493 13646 ft 353 kts 275°
2026-05-01 14:14 34.67732 31.92513 14214 ft 355 kts 275°
2026-05-01 14:14 34.68015 31.89528 14817 ft 357 kts 282°
2026-05-01 14:14 34.68729 31.86642 15439 ft 358 kts 288°
2026-05-01 14:14 34.69552 31.83781 16036 ft 359 kts 288°
2026-05-01 14:15 34.70398 31.80911 16610 ft 362 kts 288°
2026-05-01 14:15 34.71246 31.78027 17163 ft 364 kts 288°
2026-05-01 14:15 34.72095 31.75111 17730 ft 366 kts 288°
2026-05-01 14:15 34.72937 31.72185 18281 ft 368 kts 288°
2026-05-01 14:16 34.73778 31.69235 18780 ft 370 kts 287°
2026-05-01 14:16 34.74616 31.66278 19298 ft 371 kts 287°
2026-05-01 14:16 34.75455 31.63306 19812 ft 372 kts 287°
2026-05-01 14:16 34.76292 31.60330 20308 ft 373 kts 287°
2026-05-01 14:17 34.77131 31.57341 20807 ft 374 kts 287°
2026-05-01 14:17 34.77972 31.54340 21277 ft 376 kts 287°
2026-05-01 14:17 34.78815 31.51327 21739 ft 377 kts 287°
2026-05-01 14:17 34.79662 31.48297 22186 ft 379 kts 287°
2026-05-01 14:18 34.80512 31.45255 22648 ft 380 kts 287°
2026-05-01 14:18 34.81363 31.42200 23098 ft 382 kts 287°
2026-05-01 14:18 34.82216 31.39140 23531 ft 383 kts 287°
2026-05-01 14:18 34.82783 31.37103 23775 ft 384 kts 287°
2026-05-01 14:19 34.83930 31.32977 24275 ft 385 kts 287°
2026-05-01 14:19 34.84791 31.29880 24636 ft 386 kts 287°
2026-05-01 14:19 34.85651 31.26778 24997 ft 387 kts 287°
2026-05-01 14:19 34.86512 31.23669 25349 ft 389 kts 287°
2026-05-01 14:20 34.87378 31.20543 25688 ft 390 kts 287°
2026-05-01 14:20 34.89112 31.14266 26349 ft 392 kts 287°
2026-05-01 14:20 34.89982 31.11113 26657 ft 394 kts 287°
2026-05-01 14:21 34.90854 31.07947 26984 ft 394 kts 287°
2026-05-01 14:21 34.91726 31.04777 27300 ft 395 kts 287°
2026-05-01 14:21 34.92598 31.01604 27596 ft 397 kts 287°
2026-05-01 14:22 34.94356 30.95199 28179 ft 399 kts 287°
2026-05-01 14:22 34.95236 30.91987 28456 ft 400 kts 287°
2026-05-01 14:22 34.96118 30.88760 28728 ft 402 kts 287°
2026-05-01 14:22 34.97002 30.85527 29064 ft 401 kts 287°
2026-05-01 14:23 34.97881 30.82309 29502 ft 398 kts 287°
2026-05-01 14:23 34.98750 30.79121 29970 ft 395 kts 287°
2026-05-01 14:23 34.99615 30.75943 30300 ft 394 kts 287°
2026-05-01 14:23 35.00477 30.72774 30548 ft 394 kts 287°
2026-05-01 14:24 35.01339 30.69601 30809 ft 394 kts 287°
2026-05-01 14:24 35.02198 30.66435 31115 ft 392 kts 287°
2026-05-01 14:24 35.03053 30.63278 31433 ft 391 kts 287°
2026-05-01 14:24 35.03903 30.60138 31711 ft 390 kts 287°
2026-05-01 14:25 35.04753 30.56993 31961 ft 390 kts 287°
2026-05-01 14:25 35.05602 30.53852 32222 ft 389 kts 287°
2026-05-01 14:25 35.06446 30.50724 32513 ft 388 kts 287°
2026-05-01 14:25 35.07286 30.47605 32803 ft 386 kts 287°
2026-05-01 14:26 35.08124 30.44493 33046 ft 386 kts 286°
2026-05-01 14:26 35.09783 30.38316 33555 ft 384 kts 286°
2026-05-01 14:26 35.10613 30.35223 33814 ft 383 kts 286°
2026-05-01 14:27 35.11441 30.32135 34049 ft 382 kts 286°
2026-05-01 14:27 35.12265 30.29056 34256 ft 381 kts 286°
2026-05-01 14:27 35.13087 30.25982 34456 ft 380 kts 286°
2026-05-01 14:28 35.14719 30.19870 34897 ft 377 kts 286°
2026-05-01 14:28 35.15530 30.16824 35046 ft 378 kts 286°
2026-05-01 14:28 35.17161 30.10700 35234 ft 380 kts 286°
2026-05-01 14:29 35.17976 30.07632 35425 ft 379 kts 286°
2026-05-01 14:29 35.18785 30.04579 35649 ft 377 kts 286°
2026-05-01 14:30 35.22527 29.96092 35927 ft 385 kts 304°
2026-05-01 14:30 35.24217 29.93546 35932 ft 386 kts 304°
2026-05-01 14:31 35.29294 29.85949 35927 ft 383 kts 304°
2026-05-01 14:31 35.32652 29.80895 35931 ft 382 kts 304°
2026-05-01 14:32 35.35988 29.75853 35929 ft 380 kts 304°
2026-05-01 14:32 35.39309 29.70819 35930 ft 380 kts 304°
2026-05-01 14:33 35.42626 29.65785 35930 ft 379 kts 304°
2026-05-01 14:33 35.45934 29.60756 35930 ft 379 kts 303°
2026-05-01 14:34 35.49237 29.55726 35926 ft 379 kts 303°
2026-05-01 14:34 35.52521 29.50720 35927 ft 379 kts 303°
2026-05-01 14:35 35.55824 29.45677 35932 ft 380 kts 303°
2026-05-01 14:35 35.59134 29.40616 35931 ft 380 kts 303°
2026-05-01 14:36 35.62441 29.35552 35929 ft 380 kts 303°
2026-05-01 14:36 35.65755 29.30471 35927 ft 381 kts 303°
2026-05-01 14:37 35.69070 29.25379 35933 ft 381 kts 303°
2026-05-01 14:37 35.72378 29.20292 35931 ft 381 kts 303°
2026-05-01 14:38 35.75688 29.15194 35928 ft 381 kts 303°
2026-05-01 14:38 35.78993 29.10097 35934 ft 381 kts 303°
2026-05-01 14:39 35.82292 29.05001 35926 ft 380 kts 303°
2026-05-01 14:39 35.85582 28.99912 35934 ft 379 kts 303°
2026-05-01 14:40 35.88866 28.94823 35923 ft 379 kts 303°
2026-05-01 14:40 35.92133 28.89754 35932 ft 378 kts 303°
2026-05-01 14:41 35.95404 28.84670 35939 ft 377 kts 303°
2026-05-01 14:41 35.98659 28.79605 35927 ft 377 kts 303°
2026-05-01 14:42 36.01910 28.74537 35930 ft 376 kts 303°
2026-05-01 14:42 36.05156 28.69470 35936 ft 376 kts 302°
2026-05-01 14:43 36.08376 28.64437 35932 ft 376 kts 302°
2026-05-01 14:43 36.11636 28.59334 35937 ft 376 kts 302°
2026-05-01 14:44 36.14323 28.55121 35939 ft 376 kts 302°
2026-05-01 14:44 36.19177 28.47499 35940 ft 376 kts 302°
2026-05-01 14:45 36.24032 28.39858 35939 ft 376 kts 302°
2026-05-01 14:46 36.27264 28.34762 35943 ft 377 kts 302°
2026-05-01 14:46 36.32118 28.27095 35942 ft 377 kts 302°
2026-05-01 14:47 36.35351 28.21978 35942 ft 377 kts 302°
2026-05-01 14:48 36.40196 28.14297 35942 ft 377 kts 302°
2026-05-01 14:48 36.45013 28.06645 35946 ft 376 kts 302°
2026-05-01 14:49 36.52866 27.97808 35942 ft 395 kts 322°
2026-05-01 14:50 36.63159 27.92372 35951 ft 402 kts 327°
2026-05-01 14:51 36.70877 27.88364 35951 ft 400 kts 327°
2026-05-01 14:52 36.78538 27.84272 35958 ft 399 kts 326°
2026-05-01 14:53 36.86170 27.80165 35961 ft 398 kts 326°
2026-05-01 14:53 36.91260 27.77427 35959 ft 398 kts 326°
2026-05-01 14:54 36.96357 27.74684 35963 ft 399 kts 326°
2026-05-01 14:54 37.01463 27.71932 35968 ft 400 kts 326°
2026-05-01 14:55 37.06576 27.69172 35979 ft 401 kts 326°
2026-05-01 14:55 37.11713 27.66395 35978 ft 403 kts 326°
2026-05-01 14:56 37.16829 27.63627 35972 ft 403 kts 326°
2026-05-01 14:56 37.21992 27.60830 35973 ft 405 kts 326°
2026-05-01 14:57 37.27165 27.58022 35964 ft 405 kts 326°
2026-05-01 14:57 37.34982 27.53905 35979 ft 406 kts 327°
2026-05-01 14:58 37.40213 27.51199 35989 ft 406 kts 327°
2026-05-01 14:58 37.45433 27.48483 35996 ft 405 kts 327°
2026-05-01 14:59 37.50632 27.45764 35999 ft 404 kts 326°
2026-05-01 14:59 37.55712 27.42823 35996 ft 400 kts 324°
2026-05-01 15:00 37.63278 27.38375 35997 ft 400 kts 325°
2026-05-01 15:01 37.68386 27.35549 36003 ft 401 kts 326°
2026-05-01 15:01 37.73490 27.32791 36046 ft 397 kts 326°
2026-05-01 15:02 37.78590 27.30012 36002 ft 400 kts 326°
2026-05-01 15:02 37.83704 27.27210 35999 ft 402 kts 326°
2026-05-01 15:03 37.88848 27.24386 36004 ft 404 kts 326°
2026-05-01 15:03 37.93967 27.21572 36009 ft 405 kts 326°
2026-05-01 15:04 37.99145 27.18720 36016 ft 406 kts 326°
2026-05-01 15:04 38.04328 27.15865 36025 ft 406 kts 326°
2026-05-01 15:05 38.09500 27.13009 36006 ft 405 kts 326°
2026-05-01 15:05 38.14663 27.10152 36026 ft 405 kts 326°
2026-05-01 15:06 38.19830 27.07289 36034 ft 406 kts 326°
2026-05-01 15:06 38.25009 27.04417 36022 ft 406 kts 326°
2026-05-01 15:07 38.30170 27.01499 36010 ft 402 kts 322°
2026-05-01 15:07 38.34642 26.97560 36021 ft 386 kts 310°
2026-05-01 15:08 38.38679 26.93047 36038 ft 387 kts 310°
2026-05-01 15:08 38.42714 26.88545 36046 ft 388 kts 310°
2026-05-01 15:09 38.46797 26.84013 36051 ft 390 kts 311°
2026-05-01 15:09 38.50893 26.79470 36057 ft 391 kts 311°
2026-05-01 15:10 38.55000 26.74910 36065 ft 392 kts 311°
2026-05-01 15:10 38.61172 26.68044 36066 ft 393 kts 311°
2026-05-01 15:11 38.67364 26.61141 36071 ft 394 kts 311°
2026-05-01 15:12 38.71491 26.56530 36074 ft 394 kts 311°
2026-05-01 15:12 38.77689 26.49593 36089 ft 395 kts 311°
2026-05-01 15:14 38.88089 26.38078 36106 ft 396 kts 312°
2026-05-01 15:14 38.94430 26.31260 36107 ft 396 kts 312°
2026-05-01 15:15 39.02846 26.22154 36107 ft 397 kts 312°
2026-05-01 15:16 39.11309 26.12952 36106 ft 399 kts 312°
2026-05-01 15:18 39.21916 26.01378 36121 ft 401 kts 312°
2026-05-01 15:19 39.30443 25.92039 36117 ft 403 kts 312°
2026-05-01 15:19 39.36860 25.84992 36126 ft 404 kts 313°
2026-05-01 15:20 39.43294 25.77907 36132 ft 406 kts 313°
2026-05-01 15:21 39.47590 25.73167 36139 ft 406 kts 313°
2026-05-01 15:21 39.51897 25.68407 36142 ft 407 kts 313°
2026-05-01 15:22 39.58366 25.61242 36147 ft 408 kts 313°
2026-05-01 15:22 39.62649 25.56488 36154 ft 408 kts 313°
2026-05-01 15:23 39.66967 25.51688 36156 ft 409 kts 313°
2026-05-01 15:23 39.71285 25.46879 36164 ft 409 kts 313°
2026-05-01 15:24 39.75608 25.42057 36178 ft 410 kts 313°
2026-05-01 15:24 39.79932 25.37225 36189 ft 410 kts 313°
2026-05-01 15:25 39.84260 25.32381 36187 ft 411 kts 313°
2026-05-01 15:25 39.88593 25.27524 36189 ft 411 kts 313°
2026-05-01 15:26 39.92727 25.22423 36181 ft 406 kts 304°
2026-05-01 15:26 39.95990 25.16476 36182 ft 403 kts 300°
2026-05-01 15:27 39.99199 25.10477 36182 ft 404 kts 301°
2026-05-01 15:28 40.04057 25.01454 36185 ft 406 kts 301°
2026-05-01 15:28 40.07315 24.95419 36179 ft 407 kts 301°
2026-05-01 15:29 40.12188 24.86375 36184 ft 409 kts 301°
2026-05-01 15:30 40.18200 24.75179 36189 ft 410 kts 301°
2026-05-01 15:31 40.28563 24.55787 36193 ft 412 kts 301°
2026-05-01 15:32 40.35111 24.43473 36196 ft 412 kts 301°
2026-05-01 15:34 40.44907 24.24959 36200 ft 411 kts 301°